OE5RBO Weather Reports


Display with metric or nautical units.
time (UTC)temp
F
wind
direction
speed
MPH
gust
MPH
rain 1hr
in
rain 24hr
in
rain mn
in
humidity
%
barometer
mb
20260906115733 79 288 1.0 5.0 0.00 0.00 0.00 50 1026.6
20260906114733 77 288 2.0 9.0 0.00 0.00 0.00 51 1026.8
20260906113733 77 288 3.0 7.0 0.00 0.00 0.00 52 1026.8
20260906112732 77 288 2.0 6.0 0.00 0.00 0.00 53 1027.0
20260906111732 77 24 2.0 9.0 0.00 0.00 0.00 52 1027.0
20260906110732 77 288 1.0 8.0 0.00 0.00 0.00 53 1027.0
20260906105732 75 288 1.0 4.0 0.00 0.00 0.00 60 1027.1
20260906104731 74 221 3.0 7.0 0.00 0.00 0.00 57 1027.2
20260906103731 75 302 2.0 5.0 0.00 0.00 0.00 59 1027.2
20260906102730 76 3 1.0 5.0 0.00 0.00 0.00 54 1027.2
20260906101730 75 288 1.0 9.0 0.00 0.00 0.00 58 1027.3
20260906095729 74 212 2.0 7.0 0.00 0.00 0.00 60 1027.3
20260906094729 75 191 1.0 4.0 0.00 0.00 0.00 58 1027.4
20260906093728 74 288 2.0 6.0 0.00 0.00 0.00 59 1027.4
20260906092728 73 288 2.0 7.0 0.00 0.00 0.00 58 1027.5
20260906090728 72 288 2.0 6.0 0.00 0.00 0.00 58 1027.3
20260906085727 72 215 1.0 4.0 0.00 0.00 0.00 61 1027.4
20260906084727 71 356 1.0 5.0 0.00 0.00 0.00 65 1027.4
20260906083726 71 288 2.0 4.0 0.00 0.00 0.00 65 1027.4
20260906082726 70 336 1.0 3.0 0.00 0.00 0.00 67 1027.4
20260906081725 71 343 1.0 4.0 0.00 0.00 0.00 67 1027.3
20260906080725 72 60 1.0 3.0 0.00 0.00 0.00 70 1027.4
20260906075725 72 0 0.0 0.0 0.00 0.00 0.00 71 1027.5
20260906074724 72 146 0.0 1.0 0.00 0.00 0.00 73 1027.3
20260906073724 71 149 0.0 1.0 0.00 0.00 0.00 74 1027.2
20260906072723 70 46 1.0 2.0 0.00 0.00 0.00 75 1027.2
20260906071724 71 48 1.0 2.0 0.00 0.00 0.00 75 1027.2
20260906070723 70 0 0.0 0.0 0.00 0.00 0.00 84 1027.2
20260906065722 66 0 0.0 0.0 0.00 0.00 0.00 95 1027.3
20260906064722 61 0 0.0 0.0 0.00 0.00 0.00 97 1027.3
20260906062721 60 0 0.0 0.0 0.00 0.00 0.00 99 1027.4
20260906061721 60 0 0.0 0.0 0.00 0.00 0.00 100 1027.5
20260906055721 55 0 0.0 0.0 0.00 0.00 0.00 100 1027.3
20260906053719 54 0 0.0 0.0 0.00 0.00 0.00 100 1027.3
20260906052719 54 0 0.0 0.0 0.00 0.00 0.00 100 1027.2
20260906051719 54 0 0.0 0.0 0.00 0.00 0.00 100 1027.1
20260906050719 54 18 0.0 1.0 0.00 0.00 0.00 100 1027.1
20260906045718 54 0 0.0 0.0 0.00 0.00 0.00 100 1027.0
20260906044718 54 0 0.0 0.0 0.00 0.00 0.00 100 1027.0
20260906042717 55 0 0.0 0.0 0.00 0.00 0.00 100 1026.7
20260906041717 55 0 0.0 0.0 0.00 0.00 0.00 100 1026.6
20260906040716 55 0 0.0 0.0 0.00 0.00 0.00 100 1026.7
20260906035716 55 0 0.0 0.0 0.00 0.00 0.00 100 1026.7
20260906034716 55 0 0.0 0.0 0.00 0.00 0.00 100 1026.6
20260906033715 56 0 0.0 0.0 0.00 0.00 0.00 99 1026.6
20260906032715 56 0 0.0 0.0 0.00 0.00 0.00 99 1026.6
20260906031715 56 0 0.0 0.0 0.00 0.00 0.00 99 1026.5
20260906030714 56 0 0.0 0.0 0.00 0.00 0.00 99 1026.5
20260906025714 57 0 0.0 0.0 0.00 0.00 0.00 99 1026.6
20260906024714 57 0 0.0 0.0 0.00 0.00 0.00 99 1026.5
20260906021712 57 0 0.0 0.0 0.00 0.00 0.00 99 1026.5
20260906020712 58 0 0.0 0.0 0.00 0.00 0.00 99 1026.4
20260906015712 58 0 0.0 0.0 0.00 0.00 0.00 98 1026.5
20260906014711 58 0 0.0 0.0 0.00 0.00 0.00 98 1026.5
20260906013711 58 0 0.0 0.0 0.00 0.00 0.00 98 1026.4
20260906012711 59 42 1.0 3.0 0.00 0.00 0.00 98 1026.4
20260906011710 59 0 0.0 0.0 0.00 0.00 0.00 98 1026.4
20260906010710 60 35 3.0 3.0 0.00 0.00 0.00 98 1026.4
20260906005710 60 35 1.0 3.0 0.00 0.00 0.00 98 1026.4
20260906004709 60 45 1.0 3.0 0.00 0.00 0.00 98 1026.3
20260906002709 60 52 2.0 3.0 0.00 0.00 0.00 98 1026.3
20260906001708 61 59 0.0 2.0 0.00 0.00 0.00 98 1026.3
20260906000707 61 56 1.0 3.0 0.00 0.00 0.00 98 1026.3
20260905234707 62 0 0.0 0.0 0.00 0.00 0.00 98 1026.1
20260905232706 62 0 0.0 0.0 0.00 0.00 0.00 98 1026.2
20260905231706 63 135 1.0 4.0 0.00 0.00 0.27 98 1026.1
20260905230705 63 195 2.0 4.0 0.00 0.00 0.27 98 1026.1
20260905225705 63 153 1.0 5.0 0.00 0.00 0.27 98 1026.0
20260905224704 63 128 1.0 4.0 0.00 0.00 0.27 98 1025.9
20260905222704 63 149 2.0 6.0 0.00 0.00 0.27 99 1025.8
20260905221703 63 158 2.0 4.0 0.00 0.00 0.27 98 1025.7
20260905220703 63 153 1.0 3.0 0.00 0.00 0.27 98 1025.7
20260905215703 63 0 0.0 0.0 0.00 0.00 0.27 98 1025.7
20260905214702 63 0 0.0 0.0 0.00 0.00 0.27 98 1025.5
20260905213702 64 166 1.0 3.0 0.00 0.00 0.27 98 1025.4
20260905212702 64 51 1.0 2.0 0.00 0.00 0.27 97 1025.3
20260905210701 65 219 0.0 1.0 0.00 0.00 0.27 96 1025.2
20260905205701 66 158 2.0 5.0 0.00 0.00 0.27 96 1025.2
20260905204700 66 0 0.0 0.0 0.00 0.00 0.27 94 1025.0
20260905203700 66 204 0.0 3.0 0.00 0.00 0.27 93 1025.0
20260905202700 66 197 3.0 9.0 0.00 0.00 0.27 94 1025.0
20260905201659 66 218 0.0 3.0 0.00 0.00 0.27 93 1024.7
20260905200659 66 184 0.0 2.0 0.00 0.00 0.27 92 1024.4
20260905194658 66 146 1.0 3.0 0.00 0.00 0.27 91 1024.3
20260905193658 67 128 1.0 3.0 0.00 0.00 0.27 91 1024.3
20260905192658 66 184 2.0 9.0 0.00 0.00 0.27 90 1024.2
20260905191657 66 162 3.0 7.0 0.00 0.00 0.27 90 1024.1
20260905190657 66 131 3.0 9.0 0.00 0.00 0.27 90 1024.1
20260905185657 66 191 2.0 8.0 0.00 0.00 0.27 89 1024.1
20260905184656 66 153 1.0 6.0 0.00 0.00 0.27 89 1024.0
20260905183655 66 288 2.0 9.0 0.00 0.00 0.27 88 1023.8
20260905182655 66 197 2.0 6.0 0.00 0.00 0.27 87 1023.7
20260905181655 66 183 3.0 8.0 0.00 0.00 0.27 86 1023.6
20260905180655 67 169 2.0 9.0 0.00 0.00 0.27 86 1023.6
20260905175654 67 201 2.0 9.0 0.00 0.00 0.27 84 1023.5
20260905174654 67 204 3.0 8.0 0.00 0.00 0.27 82 1023.4
20260905173653 68 200 4.0 8.0 0.00 0.00 0.27 80 1023.2
20260905172653 69 197 3.0 9.0 0.00 0.00 0.27 78 1023.1
20260905171652 69 288 4.0 10.0 0.00 0.00 0.27 77 1023.1
20260905170652 69 150 5.0 9.0 0.00 0.00 0.27 76 1023.1
20260905164651 70 180 5.0 11.0 0.00 0.00 0.27 74 1023.1
20260905163651 71 288 4.0 9.0 0.00 0.00 0.27 74 1023.0
20260905162651 71 190 4.0 11.0 0.00 0.00 0.27 74 1023.0
20260905161651 71 205 3.0 10.0 0.00 0.00 0.27 75 1023.0
20260905160650 71 288 4.0 10.0 0.00 0.00 0.27 72 1022.9
20260905155650 71 181 3.0 10.0 0.00 0.00 0.27 73 1022.9
20260905154649 71 187 4.0 10.0 0.00 0.00 0.27 75 1022.9
20260905152649 71 288 3.0 10.0 0.00 0.00 0.27 77 1023.1
20260905151649 70 191 2.0 10.0 0.00 0.00 0.27 78 1023.0
20260905150648 70 200 4.0 11.0 0.00 0.00 0.27 78 1023.0
20260905145647 69 186 6.0 15.0 0.00 0.00 0.27 81 1023.1
20260905144647 69 184 6.0 16.0 0.00 0.00 0.27 82 1023.0
20260905143647 70 195 4.0 12.0 0.00 0.00 0.27 80 1023.1
20260905142646 70 203 4.0 11.0 0.00 0.00 0.27 82 1023.2
20260905141646 69 208 5.0 12.0 0.00 0.00 0.27 83 1023.1
20260905135646 67 200 6.0 14.0 0.00 0.00 0.27 85 1023.4
20260905134645 67 200 5.0 13.0 0.00 0.00 0.27 84 1023.4
20260905132645 68 181 3.0 9.0 0.00 0.00 0.27 86 1023.2
20260905131644 68 188 4.0 10.0 0.00 0.00 0.27 86 1023.1
20260905130644 68 211 3.0 8.0 0.00 0.00 0.27 88 1023.2
20260905123643 67 191 4.0 11.0 0.00 0.00 0.27 86 1023.4
20260905121642 67 194 4.0 10.0 0.00 0.00 0.27 84 1023.4
20260905120641 68 203 4.0 9.0 0.00 0.00 0.27 85 1023.2